Hourly Data Report for October 17, 2015

All times are specified in Local Standard Time (LST). Add 1 hour to adjust for Daylight Saving Time where and when it is observed.

SAINT JOHN A
NEW BRUNSWICK

45°18'58.000" N
65°53'24.000" W
108.80 m
8104901
71609
YSJ

Download Data

Hourly Data (October 2015)
Hourly Data Report for October 17, 2015
Temp Definition
°C
Dew Point Temp Definition
°C
Rel Hum Definition
%
Wind Dir Definition
10's deg

Wind Spd Definition
km/h
Visibility Definition
km
Stn Press Definition
kPa
Hmdx Definition


Wind Chill Definition


Weather Definition


TIME
00:00 Legend Double Dagger 1.3 -0.3 89 1 8 24.1 99.96     LegendNANA
01:00 Legend Double Dagger 1.4 -0.2 89 35 10 24.1 99.98     LegendNANA
02:00 Legend Double Dagger 1.0 -0.6 89 35 14 24.1 99.98     Clear
03:00 Legend Double Dagger -0.4 -1.7 91 32 7 24.1 100.01   -3 LegendNANA
04:00 Legend Double Dagger -0.6 -1.2 96 36 2 24.1 100.03   -1 LegendNANA
05:00 Legend Double Dagger -2.1 -2.7 96 29 5 24.1 100.10   -4 Clear
06:00 Legend Double Dagger -2.2 -2.6 97 36 1 24.1 100.13   -3 LegendNANA
07:00 Legend Double Dagger -2.8 -3.4 96 9 4 24.1 100.13   -4 LegendNANA
08:00 Legend Double Dagger 0.1 -0.3 97 8 4 24.1 100.13     Clear
09:00 Legend Double Dagger 4.1 0.6 78 36 1 24.1 100.12     LegendNANA
10:00 Legend Double Dagger 6.9 1.2 67 18 7 24.1 100.09     LegendNANA
11:00 Legend Double Dagger 8.5 2.3 65 18 16 24.1 100.01     Mainly Clear
12:00 Legend Double Dagger 8.0 1.9 65 15 14 24.1 99.97     LegendNANA
13:00 Legend Double Dagger 8.0 2.5 68 18 13 24.1 99.91     LegendNANA
14:00 Legend Double Dagger 6.3 5.0 91 13 13 19.3 99.81     Rain
15:00 Legend Double Dagger 6.7 5.7 93 14 19 19.3 99.71     Rain
16:00 Legend Double Dagger 7.4 6.0 91 13 5 24.1 99.68     LegendNANA
17:00 Legend Double Dagger 6.8 5.4 91 11 21 24.1 99.66     Mostly Cloudy
18:00 Legend Double Dagger 2.8 2.2 96 2 8 12.9 99.72     Thunderstorms,Rain Showers
19:00 Legend Double Dagger 2.8 2.4 97 28 4 24.1 99.74     LegendNANA
20:00 Legend Double Dagger 4.3 4.0 98 30 20 16.1 99.79     Cloudy
21:00 Legend Double Dagger 3.0 2.3 95 34 21 6.4 99.88     Fog
22:00 Legend Double Dagger 2.6 1.9 95 33 23 6.4 99.91     Fog
23:00 Legend Double Dagger 2.2 1.6 96 34 22 6.4 99.96     Fog

Notes on Data Quality.

Legend

  • E = Estimated
  • M = Missing
  • NA = Not Available
  • ‡ = Partner data that is not subject to review by the National Climate Archives
Date modified: